Hourly Data Report for October 02, 2014

All times are specified in Local Standard Time (LST). Add 1 hour to adjust for Daylight Saving Time where and when it is observed.

PANGNIRTUNG
NUNAVUT

66°08'36.300" N
65°42'40.500" W
22.60 m
2403049
71826
WXP

Download Data

Hourly Data (October 2014)
Hourly Data Report for October 2, 2014
Temp Definition
°C
Dew Point Temp Definition
°C
Rel Hum Definition
%
Wind Dir Definition
10's deg

Wind Spd Definition
km/h
Visibility Definition
km
Stn Press Definition
kPa
Hmdx Definition


Wind Chill Definition


Weather Definition


TIME
00:00 -4.5 -11.9 56 30 14   100.87   -10 LegendNANA
01:00 -4.4 -12.6 53 29 19   100.90   -11 LegendNANA
02:00 -4.1 -12.2 53 28 14   100.90   -9 LegendNANA
03:00 -3.8 -11.8 54 30 11   100.89   -8 LegendNANA
04:00 -3.9 -11.6 55 29 13   100.90   -9 LegendNANA
05:00 -4.1 -11.7 55 29 15   100.92   -9 LegendNANA
06:00 -4.2 -12.2 54 28 13   100.93   -9 LegendNANA
07:00 -3.8 -11.9 53 31 16   100.94   -9 LegendNANA
08:00 -3.6 -10.9 57 30 17   100.95   -9 LegendNANA
09:00 -3.6 -10.9 57 29 15   100.96   -9 LegendNANA
10:00 -3.7 -11.7 54 28 20   100.97   -10 LegendNANA
11:00 -3.1 -10.9 55 29 21   100.96   -9 LegendNANA
12:00 -3.5 -11.7 53 32 16   100.92   -9 LegendNANA
13:00 -3.3 -11.3 54 31 18   100.87   -9 LegendNANA
14:00 -3.0 -11.1 54 29 12   100.84   -7 LegendNANA
15:00 -3.1 -11.1 54 28 16   100.83   -8 LegendNANA
16:00 -3.3 -10.7 56 27 21   100.80   -10 LegendNANA
17:00 -3.7 -10.4 60 25 20   100.77   -10 LegendNANA
18:00 -4.5 -10.6 62 23 19   100.72   -11 LegendNANA
19:00 -4.2 -10.7 61 26 17   100.67   -10 LegendNANA
20:00 -4.6 -11.1 60 28 16   100.61   -10 LegendNANA
21:00 -4.1 -11.6 56 24 5   100.58   -6 LegendNANA
22:00 -5.7 -11.1 66 23 6   100.56   -9 LegendNANA
23:00 -6.2 -11.2 68 28 3   100.52   -8 LegendNANA

Notes on Data Quality.

Legend

  • E = Estimated
  • M = Missing
  • NA = Not Available
  • ‡ = Partner data that is not subject to review by the National Climate Archives
Date modified: